Weather observations for the past three days for
Pohnpei Island
| Date | Time (+11) | Wind (mph) | Vis. (mi.) | Weather | Sky Cond. | Temperature (ºF) | Relative Humidity | Wind Chill (°F) | Heat Index (°F) | Pressure | Precipitation (in) | ||||||
|---|---|---|---|---|---|---|---|---|---|---|---|---|---|---|---|---|---|
| Air | Dwpt | 6 hour | altimeter (in) | sea level (mb) | 1 hr | 3 hr | 6 hr | ||||||||||
| Max. | Min. | ||||||||||||||||
| 11 | 08:54 | E 7 | 15.00 | Overcast | SCT016 BKN130 OVC300 | 84.2 | 77 | 79% | 94 | 29.86 | 0.0 | ||||||
| 11 | 07:55 | E 6 | 15.00 | Overcast | BKN016 BKN130 OVC300 | 80.6 | 77 | 89% | 87 | 29.85 | 0.0 | ||||||
| 11 | 07:14 | E 8 | 15.00 | Overcast | BKN016CB BKN130 OVC300 | 80.6 | 77 | 89% | 87 | 29.8 | 0.0 | ||||||
| 11 | 00:58 | NE 3 | 15.00 | Overcast | SCT018 BKN130 OVC300 | 80.6 | 77 | 89% | 87 | 29.85 | 0.0 | ||||||
| 10 | 23:51 | E 3 | 15.00 | Overcast | SCT018 BKN130 OVC300 | 80.6 | 77 | 89% | 87 | 29.85 | 0.0 | ||||||
| 10 | 22:56 | E 5 | 15.00 | Overcast | SCT018 BKN130 OVC300 | 82.4 | 77 | 84% | 91 | 29.85 | 0.0 | ||||||
| 10 | 21:51 | E 7 | 15.00 | Overcast | SCT018 BKN130 OVC300 | 82.4 | 78.8 | 89% | 92 | 29.84 | 0.0 | ||||||
| 10 | 20:52 | NE 3 | 15.00 | Overcast | SCT018 BKN130 OVC300 | 82.4 | 78.8 | 89% | 92 | 29.83 | 0.0 | ||||||
| 10 | 19:51 | E 5 | 15.00 | Overcast | SCT018 BKN130 OVC300 | 82.4 | 78.8 | 89% | 92 | 29.82 | 0.0 | ||||||
| 10 | 18:58 | E 5 | 15.00 | Overcast | SCT017 BKN130 OVC300 | 82.4 | 78.8 | 89% | 92 | 29.81 | 0.0 | ||||||
| 10 | 17:53 | E 5 | 15.00 | Overcast | SCT017 BKN130 OVC300 | 84.2 | 78.8 | 84% | 96 | 29.78 | 0.0 | ||||||
| 10 | 16:53 | E 12 | 15.00 | Overcast | BKN017TCU BKN130 OVC300 | 84.2 | 78.8 | 84% | 96 | 29.77 | 0.0 | ||||||
| 10 | 13:52 | E 12 | 15.00 | Overcast | SCT017TCU BKN130 OVC300 | 87.8 | 78.8 | 75% | 102 | 29.78 | 0.0 | ||||||
| 10 | 12:52 | E 8 | 15.00 | Mostly Cloudy | SCT017TCU BKN130 BKN300 | 87.8 | 78.8 | 75% | 102 | 29.8 | 0.0 | ||||||
| 10 | 11:54 | E 12 | 15.00 | Mostly Cloudy | SCT017CB BKN130 BKN300 | 89.6 | 78.8 | 71% | 105 | 29.82 | 0.0 | ||||||
| 10 | 10:55 | E 8 | 15.00 | Mostly Cloudy | SCT017CB BKN130 BKN300 | 87.8 | 77 | 70% | 100 | 29.83 | 0.0 | ||||||
| 10 | 09:53 | E 8 | 15.00 | Mostly Cloudy | SCT017 BKN130 BKN300 | 86 | 78.8 | 79% | 99 | 29.83 | 0.0 | ||||||
| 10 | 08:53 | E 6 | 15.00 | Mostly Cloudy | SCT017CB BKN130 BKN300 | 84.2 | 78.8 | 84% | 96 | 29.83 | 0.0 | ||||||
| 10 | 07:55 | E 5 | 15.00 | Mostly Cloudy | SCT017 BKN130 BKN300 | 82.4 | 77 | 84% | 91 | 29.81 | 0.0 | ||||||
| 09 | 23:45 | E 8 | 15.00 | Mostly Cloudy | SCT016 BKN300 | 82.4 | 77 | 84% | 91 | 29.81 | 0.0 | ||||||
| 09 | 22:54 | E 8 | 15.00 | Mostly Cloudy | SCT016 BKN300 | 82.4 | 77 | 84% | 91 | 29.81 | 0.0 | ||||||
| 09 | 21:55 | E 14 | 15.00 | Mostly Cloudy | SCT016 SCT130 BKN300 | 82.4 | 78.8 | 89% | 92 | 29.81 | 0.0 | ||||||
| 09 | 20:54 | E 10 | 15.00 | Mostly Cloudy | SCT016 SCT130 BKN300 | 82.4 | 78.8 | 89% | 92 | 29.8 | 0.0 | ||||||
| 09 | 19:52 | E 12 | 15.00 | Overcast | SCT016 BKN130 OVC300 | 82.4 | 78.8 | 89% | 92 | 29.79 | 0.0 | ||||||
| 09 | 18:52 | E 12 | 15.00 | Overcast | BKN016CB OVC130 | 82.4 | 78.8 | 89% | 92 | 29.78 | 0.0 | ||||||
| 09 | 17:53 | NE 14 | 15.00 | Overcast | BKN016CB BKN130 OVC280 | 82.4 | 78.8 | 89% | 92 | 29.77 | 0.0 | ||||||
| 09 | 16:52 | NE 14 | 15.00 | Overcast | SCT016CB BKN130 OVC280 | 82.4 | 78.8 | 89% | 92 | 29.76 | 0.0 | ||||||
| 09 | 15:56 | E 14 | 15.00 | Overcast | SCT016CB BKN130 OVC280 | 84.2 | 78.8 | 84% | 96 | 29.75 | 0.0 | ||||||
| 09 | 14:54 | E 6 | 15.00 | Overcast | SCT016 BKN130 OVC280 | 82.4 | 77 | 84% | 91 | 29.75 | 0.0 | ||||||
| 09 | 13:52 | E 6 | 12.00 | Light Showers Rain | BKN016CB OVC130 | 80.6 | 77 | 89% | 87 | 29.77 | 0.0 | ||||||
| 09 | 12:54 | E 6 | 12.00 | Light Showers Rain | BKN016CB OVC130 | 82.4 | 78.8 | 89% | 92 | 29.79 | 0.0 | ||||||
| 09 | 11:56 | SE 6 | 10.00 | Showers in Vicinity | BKN016CB OVC130 | 82.4 | 78.8 | 89% | 92 | 29.81 | 0.0 | ||||||
| 09 | 10:58 | E 7 | 15.00 | Mostly Cloudy | SCT016TCU BKN130 BKN300 | 87.8 | 77 | 70% | 100 | 29.81 | 0.0 | ||||||
| 09 | 09:53 | SE 7 | 15.00 | Overcast | BKN016CB BKN130 OVC300 | 84.2 | 78.8 | 84% | 96 | 29.83 | 0.0 | ||||||
| 09 | 08:53 | E 7 | 15.00 | Mostly Cloudy | SCT016CB BKN130 BKN300 | 84.2 | 78.8 | 84% | 96 | 29.84 | 0.0 | ||||||
| 09 | 08:15 | SE 9 | 15.00 | Mostly Cloudy | SCT016CB BKN130 BKN300 | 84.2 | 78.8 | 84% | 96 | 29.83 | 0.0 | ||||||
| 08 | 15:53 | SE 12 | 10.00 | Light Showers Rain | BKN016CB OVC130 | 80.6 | 77 | 89% | 87 | 29.74 | 0.0 | ||||||
| 08 | 14:52 | SE 12 | 15.00 | Overcast | BKN016CB OVC130 | 82.4 | 77 | 84% | 91 | 29.74 | 0.0 | ||||||
| 08 | 13:52 | E 10 | 13.00 | Showers in Vicinity | BKN016CB OVC130 | 80.6 | 77 | 89% | 87 | 29.74 | 0.0 | ||||||
| 08 | 12:52 | E 10 | 13.00 | Showers in Vicinity | BKN016CB OVC130 | 82.4 | 77 | 84% | 91 | 29.76 | 0.0 | ||||||
| 08 | 11:56 | E 8 | 15.00 | Overcast | BKN016CB OVC130 | 80.6 | 77 | 89% | 87 | 29.77 | 0.0 | ||||||
| 08 | 10:53 | E 8 | 15.00 | Overcast | BKN016CB OVC130 | 82.4 | 77 | 84% | 91 | 29.79 | 0.0 | ||||||
| 08 | 09:54 | NE 18 | 11.00 | Showers in Vicinity | BKN016CB OVC130 | 80.6 | 77 | 89% | 87 | 29.78 | 0.0 | ||||||
| Date | Time (+11) | Wind (mph) | Vis. (mi.) | Weather | Sky Cond. | Air | Dwpt | Max. | Min. | Relative Humidity | Wind Chill (°F) | Heat Index (°F) | altimeter (in) | sea level (mb) | 1 hr | 3 hr | 6 hr |
| 6 hour | |||||||||||||||||
| Temperature (ºF) | Pressure | Precipitation (in) | |||||||||||||||